Temperature
15 15 15 15 14 14 14 14 14 14 13 13 13 13 13 13 13 13 12 12 12 12 12 12 12 12 12 12 12 12 12 12 12 12 13 13 12 13 13 13 13 13 14
15 15 15 15 14 14 14 14 13 13 13 13 13 13 12 12 12 12 12 12 12 12 12 11 11 11 11 11 11 11 11 11 12 12 12 12 12 12 12 13 13 13 13
15 15 15 14 14 14 14 13 13 13 13 13 13 12 12 12 12 12 12 12 11 11 11 11 11 11 11 11 11 11 11 11 11 11 11 12 12 12 12 12 12 12 13
15 15 15 14 14 14 14 13 13 13 13 13 12 12 12 12 12 12 12 11 11 11 11 11 11 11 11 11 11 11 11 11 11 11 11 11 11 11 11 12 12 12 12
15 15 15 14 14 14 13 13 13 13 13 12 12 12 12 12 12 12 12 11 11 11 11 11 11 11 11 11 10 10 10 10 10 10 10 11 11 11 11 11 11 11 12
15 15 15 14 14 14 13 13 13 13 13 12 12 12 12 12 12 12 12 11 11 11 11 10 10 10 10 10 10 10 10 10 10 10 10 10 10 10 10 10 10 11 11
15 15 15 14 14 13 13 13 13 13 12 12 12 12 11 12 12 12 11 11 11 10 10 10 10 10 10 10 10 10 10 10 10 9 9 9 10 10 10 10 10 10 10
15 14 14 14 14 13 13 13 13 12 12 12 12 11 12 11 12 11 11 11 10 10 10 10 10 10 10 10 9 9 9 9 9 9 9 9 9 9 9 9 9 10 10
14 14 14 14 14 13 13 13 13 12 12 12 12 11 11 11 11 11 11 10 10 10 10 10 10 9 9 9 9 9 9 9 9 9 9 9 9 9 9 9 9 9 9
14 14 14 14 14 13 13 13 12 12 12 12 12 11 11 11 11 11 11 10 10 9 9 9 9 9 9 9 9 8 8 8 8 8 8 8 9 8 9 8 8 8 9
14 14 14 13 13 13 13 12 12 12 12 11 11 11 11 11 10 10 10 10 9 9 9 9 9 9 9 8 8 8 8 8 8 8 8 8 8 8 8 8 8 8 8
14 14 13 13 13 13 13 12 12 12 11 11 11 10 10 10 10 10 10 9 9 9 9 8 8 8 8 8 8 8 8 7 7 7 7 7 7 7 8 8 8 8 8
14 13 13 13 13 13 12 12 12 11 11 10 10 10 10 10 10 10 9 9 9 9 8 8 8 8 8 8 8 7 7 7 7 7 7 7 7 7 7 7 7 7 8
13 13 13 13 12 12 12 12 11 11 11 10 10 10 9 9 9 9 9 9 8 8 8 8 8 8 7 7 7 7 7 6 6 6 6 6 6 6 6 7 7 7 7
13 13 12 12 12 12 11 11 11 11 11 10 10 9 9 9 9 9 8 8 8 8 7 7 7 7 7 7 6 6 6 6 6 6 5 5 6 6 6 6 6 6 6
13 12 12 12 12 11 11 11 11 11 10 10 10 9 9 9 9 8 8 8 8 7 7 7 6 6 6 6 6 6 6 5 5 5 5 5 5 5 5 5 5 5 6
13 12 12 12 11 11 11 10 10 10 10 10 10 9 9 9 8 8 8 8 7 7 6 6 6 6 6 6 5 5 5 5 5 5 4 4 5 5 5 5 5 5 5
12 12 12 12 11 11 10 10 10 9 9 9 9 9 9 8 8 8 7 7 7 6 6 6 6 6 5 5 5 5 4 4 4 4 4 4 4 4 4 4 4 5 5
12 11 11 11 11 10 10 10 9 9 9 8 8 8 8 8 7 7 7 6 6 6 6 5 5 5 5 5 4 4 4 4 4 4 3 3 3 3 4 4 4 4 4
11 11 11 11 10 10 10 9 9 8 8 8 8 8 7 7 7 7 6 6 6 5 5 5 5 4 4 4 4 4 3 3 3 3 3 3 3 3 3 3 4 4 4
11 11 11 10 10 9 9 9 8 8 8 7 7 7 7 6 6 6 6 5 5 5 5 4 4 4 4 4 3 3 3 3 3 3 3 3 3 3 3 3 3 3 4
10 10 10 9 9 9 8 8 8 7 7 7 7 7 6 6 6 5 5 5 5 4 4 4 4 3 3 3 3 3 3 3 3 3 2 2 2 2 3 3 3 3 3
10 9 9 9 8 8 8 7 7 7 7 6 6 6 6 5 5 5 5 4 4 4 4 3 3 3 3 3 3 3 2 2 2 2 2 2 2 2 2 2 3 3 3
9 9 8 8 8 7 7 7 7 6 6 6 6 5 5 5 5 4 4 4 4 4 3 3 3 3 3 3 3 2 2 2 2 2 2 2 2 2 2 2 2 3 3
8 8 8 7 7 7 7 6 6 6 6 5 5 5 5 4 4 4 4 4 3 3 3 3 3 3 3 2 2 2 2 2 2 2 2 1 1 2 2 2 2 2 2
8 7 7 7 6 6 6 6 6 5 5 5 5 4 4 4 4 4 3 3 3 3 3 3 3 3 2 2 2 2 2 2 2 2 2 1 1 2 2 2 2 2 2
Wind_Speed
6 5 5 4 4 3 3 2 2 2 2 2 2 3 4 4 4 4 4 5 5 5 5 5 5 6 5 5 4 4 4 5 5 5 5 6 6 6 6 6 6 6 5
6 6 5 5 5 4 4 3 2 2 2 2 2 2 3 3 3 4 4 4 5 5 5 5 6 5 5 5 5 5 5 5 6 7 6 6 7 7 6 7 6 6 6
6 6 6 6 6 5 4 3 2 2 2 1 1 1 2 2 3 3 3 4 4 5 5 5 6 6 6 5 6 6 5 5 6 7 7 6 6 6 7 7 7 6 6
7 7 6 6 6 5 4 3 2 1 1 1 0 1 1 2 2 3 4 4 4 5 5 5 6 6 7 7 6 7 7 7 7 7 7 6 6 7 7 7 7 6 6
8 7 6 6 6 5 4 4 3 2 2 1 1 1 2 2 3 5 5 5 5 5 5 5 5 5 7 7 7 8 8 7 7 7 7 7 7 7 7 7 8 7 7
8 7 6 6 6 6 5 4 3 3 2 2 2 2 2 2 3 5 7 6 6 6 6 6 6 5 5 6 7 8 9 9 9 8 8 9 9 9 7 8 8 9 8
8 7 7 7 7 6 6 5 4 3 3 2 2 2 3 2 2 5 7 7 6 6 7 7 6 6 7 8 7 9 9 9 10 11 11 11 11 10 10 10 9 10 10
8 7 7 7 6 6 5 5 4 4 3 3 3 3 3 2 3 5 7 7 6 6 6 7 7 7 7 9 10 11 11 10 9 10 11 11 11 10 11 11 12 11 11
9 8 7 7 7 6 6 5 4 4 3 3 3 3 4 3 2 4 7 6 6 7 6 7 8 8 6 9 11 11 12 11 8 10 13 13 14 14 13 10 10 10 11
9 8 8 7 7 7 6 5 5 4 4 4 3 4 4 4 1 4 7 5 6 7 6 7 6 7 8 10 11 12 13 12 12 12 11 12 13 12 13 12 10 11 11
8 8 7 7 7 6 6 5 5 4 4 4 4 4 4 4 3 3 6 6 6 7 7 7 6 5 9 12 13 12 12 14 14 13 12 11 11 10 10 10 10 10 11
8 8 7 7 6 6 6 5 5 5 5 5 5 5 4 4 4 4 6 7 9 8 8 8 7 7 11 13 12 12 14 14 11 11 10 10 10 9 9 10 11 12 13
9 8 7 7 7 6 6 6 5 5 5 5 5 5 5 5 4 5 7 8 9 8 8 8 10 11 12 11 10 12 12 10 10 10 10 11 10 10 10 9 11 11 13
10 9 8 8 7 7 6 6 5 5 5 6 5 6 6 6 6 5 5 6 7 8 8 8 10 11 10 10 11 10 8 9 10 10 11 11 10 10 10 9 10 9 11
10 9 8 7 7 7 7 6 7 6 6 6 6 6 7 7 5 6 8 8 8 8 9 9 9 9 9 9 9 9 9 9 9 9 10 11 11 10 10 9 9 10 11
9 9 7 7 6 6 6 6 7 7 6 8 9 9 8 8 8 9 10 11 11 10 10 10 10 10 10 10 10 9 9 9 10 10 10 11 11 11 11 10 10 11 12
10 9 7 7 7 7 6 6 6 7 9 10 11 11 11 10 10 10 11 11 11 11 10 10 10 10 10 10 10 10 11 11 10 10 11 11 11 11 11 11 11 11 12
10 8 7 7 7 7 7 7 6 7 6 7 8 10 11 11 11 11 10 9 9 9 9 10 11 11 11 11 11 11 11 11 11 11 11 11 11 12 12 12 11 12 12
9 7 7 7 7 7 7 7 7 8 7 7 7 6 8 9 10 11 10 9 10 10 10 10 11 11 11 11 11 11 11 11 12 11 11 12 12 12 12 12 12 13 12
8 8 8 7 7 7 7 7 7 7 7 7 7 7 6 6 8 8 8 9 10 10 10 11 11 11 11 11 11 11 12 12 12 12 12 12 12 12 13 14 12 12 11
8 8 10 8 8 7 7 7 7 7 8 8 8 7 6 8 9 10 9 9 10 10 11 11 11 11 11 11 11 12 13 12 12 12 11 11 12 12 12 12 12 12 11
7 7 8 8 7 7 7 8 8 8 8 9 8 7 6 8 9 10 10 10 10 10 11 11 11 11 11 11 12 12 13 13 12 12 12 12 12 12 12 12 11 11 11
8 8 8 8 8 8 8 8 8 8 9 9 9 8 8 8 9 10 10 11 10 11 10 11 11 11 11 12 12 12 13 12 12 12 12 12 12 12 12 12 13 13 12
8 8 9 8 8 8 8 9 9 9 9 9 9 9 9 9 10 11 11 11 11 11 11 11 12 14 16 14 13 13 13 13 14 13 15 14 14 13 13 13 13 13 12
8 8 8 9 8 8 9 9 9 9 9 9 9 9 10 10 11 11 11 11 12 12 13 13 12 13 16 17 16 15 15 15 15 15 14 13 15 15 14 14 12 12 12
7 8 8 8 8 8 9 9 9 10 9 9 10 10 10 10 11 11 11 11 11 12 13 12 14 16 17 16 17 17 16 16 16 17 15 13 14 13 14 12 13 12 12
Wind_Direction
170 165 161 157 155 152 135 125 116 93 93 86 70 57 51 43 41 41 27 25 18 19 17 15 11 6 357 354 346 339 332 321 307 310 315 318 317 318 322 319 313 304 298
176 175 173 166 169 164 151 149 138 113 96 79 77 63 50 36 28 25 19 11 6 3 2 359 358 360 350 345 341 336 335 326 313 311 309 315 314 314 314 311 308 304 301
180 182 180 177 172 169 165 160 154 130 121 101 72 55 41 19 9 3 358 351 350 349 346 344 344 344 340 342 333 329 327 326 319 307 309 312 305 305 308 302 298 296 293
184 187 187 181 176 176 173 174 178 170 164 150 64 20 356 342 336 342 339 331 331 332 331 331 332 333 333 333 328 326 323 319 316 311 308 307 305 305 301 301 301 298 292
184 189 189 182 175 179 177 185 189 196 208 218 252 293 319 315 337 333 322 317 315 316 316 318 324 329 329 323 321 321 319 312 309 307 307 308 306 305 305 306 300 299 290
185 185 180 183 179 184 186 190 194 205 217 223 252 272 298 316 5 335 313 307 307 306 309 310 309 300 300 290 296 302 304 302 306 304 300 299 303 304 304 297 297 295 291
182 180 181 183 182 186 186 187 197 205 212 226 246 265 282 327 348 314 309 304 303 307 308 307 308 309 302 303 291 272 275 273 280 289 292 295 297 302 301 296 291 290 290
183 183 182 183 184 185 187 194 208 215 211 229 249 263 283 307 322 310 302 292 298 300 300 301 301 305 318 317 308 301 298 291 285 282 286 290 293 296 293 292 291 286 284
186 187 185 186 185 188 192 200 209 215 222 233 247 263 271 278 307 304 293 293 292 295 297 298 302 303 332 317 303 300 299 296 277 268 280 283 284 280 279 281 281 279 280
190 191 188 188 187 192 200 205 204 212 226 237 244 258 268 281 306 300 293 290 295 298 298 295 299 304 319 310 301 302 300 302 301 291 278 270 272 267 256 262 271 275 278
186 186 187 187 192 196 201 203 205 213 224 237 245 255 264 275 265 274 288 290 296 298 299 298 304 310 305 303 299 298 302 304 299 292 287 285 282 279 274 269 267 268 272
181 185 188 190 193 196 199 206 212 216 225 238 250 259 266 265 268 265 272 280 295 293 295 298 306 310 302 298 296 300 300 296 290 287 285 284 284 283 283 283 280 276 271
182 187 191 194 195 202 205 208 214 222 234 245 254 264 271 275 264 248 261 268 277 283 290 303 303 296 291 288 283 288 290 288 289 289 289 288 287 285 286 284 282 279 276
189 192 196 200 202 206 212 218 222 228 237 247 257 266 274 276 277 279 280 277 267 275 287 290 279 277 273 279 286 284 284 289 292 290 289 289 286 282 279 280 281 282 280
194 197 202 206 210 214 215 222 230 234 244 252 260 266 274 277 290 308 292 288 292 295 299 292 288 288 288 288 288 290 289 287 287 287 287 289 286 282 280 280 280 280 279
200 202 204 205 209 217 223 228 228 242 240 244 257 267 270 271 287 281 279 283 288 289 288 282 283 283 284 287 289 290 288 288 289 289 287 287 286 283 282 281 279 276 276
206 205 205 210 212 218 226 236 243 237 232 237 242 249 259 272 269 270 272 275 274 273 274 277 280 282 283 284 285 285 287 288 289 287 285 285 286 284 281 279 279 276 274
212 211 211 215 221 225 230 238 246 255 259 259 243 235 241 252 257 261 264 272 274 265 272 278 281 282 283 284 284 284 285 286 284 283 284 284 285 284 281 279 278 276 275
212 214 215 220 224 230 235 240 245 252 260 266 272 256 236 245 248 252 251 264 273 277 278 279 281 282 284 283 283 283 284 283 282 283 284 284 283 281 278 277 277 274 271
214 212 216 223 226 231 235 241 245 250 257 263 269 275 273 268 271 269 263 268 273 276 279 281 282 283 284 284 283 282 283 282 282 281 282 282 281 281 280 278 275 274 272
215 212 210 226 232 235 238 243 247 252 259 265 270 273 272 272 274 275 275 275 276 279 282 283 283 283 282 283 283 282 282 283 281 281 282 281 281 281 280 277 272 271 271
218 221 221 227 232 235 242 247 252 256 261 267 274 272 252 264 273 277 278 278 279 279 281 282 281 281 280 281 282 283 283 283 283 283 282 282 282 280 279 276 270 269 267
222 224 226 230 233 234 240 249 254 259 265 270 273 277 275 273 275 278 280 283 283 281 282 280 281 282 283 284 283 282 282 283 285 288 287 286 284 282 280 276 270 270 266
226 229 232 236 239 244 248 254 258 262 266 270 272 273 274 276 277 279 281 283 283 282 282 282 282 284 287 288 286 284 282 286 288 286 286 284 283 281 279 274 271 266 264
230 233 237 242 246 249 253 256 259 263 266 268 270 273 275 277 278 280 282 283 284 282 283 284 284 285 287 288 288 287 290 290 286 286 286 282 278 277 276 272 269 266 261
236 238 243 248 251 253 256 259 262 265 268 270 271 273 275 277 279 282 283 282 281 281 283 284 284 288 290 288 288 290 290 287 285 284 283 280 277 275 275 270 269 265 262
Height
1559 1559 1559 1560 1560 1560 1560 1560 1560 1560 1560 1560 1560 1560 1559 1558 1558 1556 1555 1554 1553 1552 1551 1550 1548 1546 1545 1544 1543 1541 1540 1539 1538 1536 1535 1534 1532 1531 1529 1528 1527 1526 1526
1557 1558 1558 1558 1558 1559 1559 1559 1560 1560 1560 1560 1560 1560 1559 1558 1557 1556 1555 1554 1553 1552 1551 1549 1548 1546 1544 1543 1542 1541 1539 1538 1537 1534 1533 1532 1530 1528 1527 1525 1524 1524 1523
1555 1556 1556 1557 1557 1558 1559 1559 1559 1560 1560 1560 1560 1559 1558 1558 1557 1556 1555 1554 1553 1551 1550 1548 1547 1545 1544 1543 1541 1540 1538 1536 1534 1533 1531 1529 1527 1526 1524 1523 1522 1520 1519
1553 1554 1555 1556 1556 1557 1557 1558 1558 1559 1559 1559 1559 1558 1558 1557 1556 1555 1554 1553 1552 1550 1548 1547 1545 1544 1543 1541 1539 1538 1536 1535 1533 1531 1529 1527 1525 1523 1522 1520 1519 1517 1516
1551 1552 1553 1554 1555 1555 1556 1557 1557 1558 1558 1558 1557 1557 1556 1555 1555 1553 1552 1551 1550 1549 1547 1545 1543 1541 1540 1538 1537 1535 1534 1532 1531 1529 1526 1524 1522 1521 1519 1517 1515 1514 1512
1549 1550 1551 1552 1553 1554 1555 1555 1556 1556 1556 1556 1556 1555 1554 1553 1552 1551 1550 1549 1548 1546 1545 1543 1541 1539 1537 1535 1534 1532 1531 1529 1528 1526 1524 1522 1520 1518 1516 1514 1512 1511 1509
1547 1548 1549 1550 1551 1552 1553 1553 1554 1554 1554 1554 1553 1553 1552 1551 1550 1549 1547 1546 1545 1544 1542 1541 1539 1537 1535 1533 1531 1529 1527 1525 1524 1522 1520 1518 1516 1514 1512 1510 1509 1507 1505
1544 1545 1546 1547 1549 1550 1550 1551 1551 1552 1552 1551 1551 1550 1549 1548 1547 1546 1545 1544 1542 1541 1539 1538 1536 1534 1531 1529 1527 1525 1524 1522 1519 1518 1516 1513 1511 1509 1507 1506 1504 1501 1499
1541 1542 1544 1545 1546 1547 1548 1548 1549 1549 1549 1549 1548 1547 1546 1545 1544 1543 1542 1540 1539 1537 1536 1534 1532 1530 1527 1525 1523 1521 1518 1516 1514 1511 1509 1507 1505 1503 1501 1500 1498 1497 1494
1538 1539 1541 1542 1543 1544 1545 1545 1546 1546 1546 1545 1545 1544 1543 1542 1541 1539 1538 1537 1536 1534 1532 1530 1528 1525 1523 1521 1519 1516 1513 1511 1508 1505 1503 1501 1499 1497 1495 1494 1493 1491 1489
1535 1536 1537 1539 1540 1541 1542 1542 1542 1542 1542 1542 1542 1541 1540 1539 1537 1536 1535 1533 1532 1530 1528 1526 1524 1521 1518 1516 1514 1511 1508 1505 1502 1499 1497 1494 1492 1491 1489 1488 1486 1485 1483
1532 1533 1534 1535 1536 1537 1538 1539 1539 1539 1539 1539 1538 1537 1536 1535 1534 1532 1531 1529 1528 1526 1524 1521 1519 1516 1513 1510 1507 1505 1502 1499 1496 1493 1491 1488 1486 1484 1482 1481 1479 1477 1475
1528 1529 1531 1532 1533 1534 1534 1535 1535 1535 1535 1535 1534 1533 1532 1531 1529 1528 1526 1525 1523 1521 1518 1516 1513 1510 1507 1504 1501 1499 1496 1493 1490 1488 1485 1482 1480 1477 1475 1473 1471 1469 1467
1524 1526 1527 1528 1529 1530 1530 1531 1531 1531 1531 1531 1530 1529 1528 1527 1525 1524 1522 1520 1518 1516 1513 1510 1507 1504 1501 1498 1496 1493 1490 1488 1485 1482 1478 1475 1472 1470 1468 1466 1464 1462 1460
1521 1522 1523 1524 1525 1525 1525 1526 1526 1526 1526 1526 1525 1524 1523 1522 1520 1519 1517 1515 1513 1510 1507 1504 1502 1499 1496 1493 1490 1488 1485 1482 1479 1475 1472 1469 1466 1464 1461 1459 1457 1455 1453
1517 1518 1519 1519 1520 1520 1521 1521 1520 1521 1521 1520 1519 1519 1517 1516 1514 1513 1511 1509 1507 1504 1502 1499 1496 1493 1490 1487 1484 1481 1479 1476 1472 1469 1466 1463 1459 1457 1454 1452 1450 1448 1445
1512 1513 1514 1515 1515 1515 1516 1516 1516 1515 1515 1514 1514 1513 1512 1510 1508 1507 1505 1503 1501 1498 1495 1493 1490 1487 1484 1481 1478 1475 1472 1469 1466 1463 1459 1456 1453 1450 1447 1445 1442 1440 1437
1507 1508 1509 1509 1510 1510 1510 1510 1510 1510 1509 1508 1508 1506 1505 1504 1502 1500 1498 1496 1494 1492 1489 1487 1484 1481 1478 1474 1471 1468 1465 1462 1459 1456 1452 1449 1446 1443 1440 1438 1435 1433 1430
1502 1503 1504 1504 1504 1505 1505 1504 1504 1504 1503 1502 1501 1500 1498 1497 1495 1494 1492 1490 1487 1485 1483 1480 1477 1474 1471 1467 1464 1461 1458 1454 1451 1448 1445 1442 1439 1436 1433 1430 1428 1426 1424
1496 1497 1498 1499 1499 1499 1499 1499 1498 1498 1497 1496 1495 1493 1492 1490 1488 1487 1485 1483 1480 1478 1475 1472 1469 1466 1463 1460 1456 1453 1450 1447 1444 1441 1437 1434 1431 1429 1426 1423 1421 1419 1417
1491 1491 1492 1493 1493 1493 1493 1493 1492 1491 1491 1489 1488 1487 1485 1483 1481 1480 1478 1476 1473 1471 1468 1465 1461 1458 1455 1452 1448 1445 1442 1439 1436 1433 1430 1427 1424 1421 1418 1416 1414 1412 1410
1485 1486 1486 1487 1487 1487 1487 1487 1486 1485 1484 1483 1482 1480 1478 1476 1474 1473 1470 1468 1466 1463 1460 1457 1454 1451 1447 1444 1441 1437 1434 1431 1428 1425 1422 1419 1416 1413 1410 1408 1406 1405 1403
1479 1480 1480 1480 1481 1481 1480 1480 1480 1479 1478 1476 1475 1473 1472 1470 1468 1465 1463 1461 1458 1455 1452 1449 1446 1443 1440 1437 1433 1430 1427 1424 1421 1418 1415 1411 1408 1405 1403 1401 1399 1397 1396
1473 1474 1474 1475 1475 1474 1474 1474 1473 1472 1471 1470 1468 1467 1465 1463 1461 1458 1456 1453 1450 1447 1444 1441 1438 1435 1432 1428 1425 1422 1419 1416 1413 1410 1407 1404 1401 1398 1395 1393 1391 1390 1388
1467 1468 1468 1468 1468 1468 1467 1467 1466 1465 1464 1463 1461 1460 1458 1456 1453 1451 1448 1445 1442 1439 1436 1433 1430 1427 1423 1420 1417 1414 1411 1408 1405 1402 1399 1396 1393 1390 1388 1385 1384 1382 1381
1462 1462 1462 1462 1462 1461 1461 1460 1459 1458 1457 1455 1454 1452 1450 1448 1446 1443 1440 1437 1434 1431 1428 1425 1422 1419 1415 1412 1408 1405 1402 1399 1397 1394 1391 1388 1385 1382 1380 1378 1376 1375 1373